Location: Tel Aviv
(32.0670°N, 34.7670°E)
Time: 14:59:06
(UTC+03:00)

NOAA 15 - Visible Passes

Search period start: 17 September 2024 00:00
Search period end: 27 September 2024 00:00
Orbit: 794 x 811 km, 98.6° (Epoch: 17 September)

Date Brightness Start Highest point End Pass type
(mag) Time Alt. Az. Time Alt. Az. Time Alt. Az.
17 Sep 4.7 19:14:04 10° SSE 19:19:10 57° ENE 19:24:18 10° N visible
17 Sep 7.4 20:56:51 10° WSW 20:59:11 13° W 21:01:32 10° WNW visible
18 Sep 6.7 20:28:57 10° SSW 20:33:09 24° W 20:37:22 10° NW visible
19 Sep 5.7 20:02:14 10° S 20:07:12 45° W 20:12:12 10° NNW visible
20 Sep 4.6 19:36:07 10° SSE 19:41:20 84° WSW 19:46:35 10° NNW visible
21 Sep 4.7 19:10:31 10° SSE 19:15:34 53° ENE 19:20:38 10° N visible
21 Sep 7.4 20:52:49 10° SW 20:55:31 14° W 20:58:15 10° WNW visible
22 Sep 6.6 20:25:09 10° SSW 20:29:30 27° W 20:33:52 10° NW visible
23 Sep 5.5 19:58:31 10° S 20:03:33 49° W 20:08:37 10° NNW visible
24 Sep 4.5 19:32:28 10° SSE 19:37:42 89° ENE 19:42:56 10° NNW visible
25 Sep 4.8 19:06:56 10° SSE 19:11:55 48° ENE 19:16:56 10° N visible
25 Sep 7.3 20:48:48 10° SW 20:51:50 16° W 20:54:54 10° WNW visible
26 Sep 6.5 20:21:20 10° SSW 20:25:49 29° W 20:30:19 10° NW visible
